Regional Weather Roundup
Issued by NWS Green Bay, WI

Home | Current Version | Previous Version | Text Only | Print | Product List | Glossary On
Versions: 1 2 3 4 5 6 7 8 9 10 11 12 13 14 15 16 17 18 19 20 21 22 23 24 25 26 27 28 29 30 31 32 33 34 35 36 37 38 39 40 41 42 43 44 45 46 47 48 49 50
000
ASUS43 KGRB 080311
RWRGRB

NORTH-CENTRAL AND NORTHEAST WISCONSIN REGIONAL WEATHER ROUNDUP
NATIONAL WEATHER SERVICE GREEN BAY WI
1000 PM CDT TUE JUL 07 2015

WIZ005-009-010>012-018-019-080400-
NORTH CENTRAL WISCONSIN

CITY           SKY/WX    TMP DP  RH WIND       PRES   REMARKS
IRONWOOD       CLEAR     52  50  93 CALM      30.10R
MANITOWISH WTR CLEAR     48  48 100 CALM      30.13R
ARBOR VITAE    CLEAR     52  48  86 CALM      30.13S
EAGLE RIVER    CLEAR     48  46  93 CALM      30.13R
LAND O LAKES   CLEAR     47  46  97 CALM      30.14R
RHINELANDER    CLEAR     49  46  90 CALM      30.14R
PHILLIPS       CLEAR     49  47  93 CALM      30.13R
ANTIGO         CLEAR     52  50  93 CALM      30.13R
TOMAHAWK       CLEAR     48  47  95 CALM      30.14R
MERRILL        CLEAR     51  49  93 CALM      30.13R
$$

WIZ013-073-080400-
NORTHEAST WISCONSIN

CITY           SKY/WX    TMP DP  RH WIND       PRES   REMARKS
IRON MOUNTAIN  CLEAR     52  47  83 CALM      30.10R
MARINETTE      CLEAR     59  46  63 CALM      30.10R
OCONTO         CLEAR     53  53 100 CALM      30.10R
$$

WIZ017-030-035>037-045-080400-
CENTRAL WISCONSIN

CITY           SKY/WX    TMP DP  RH WIND       PRES   REMARKS
MEDFORD        CLEAR     52  49  90 CALM      30.13R
WAUSAU         CLEAR     60  47  61 N5        30.10R
MOSINEE        CLEAR     57  48  72 N3        30.12R
MARSHFIELD     CLEAR     58  50  75 CALM      30.12R
WISC RAPIDS    CLEAR     56  50  80 CALM      30.12R
STEVENS POINT  CLEAR     54  51  89 CALM      30.12R
WAUPACA        CLEAR     57  54  89 CALM      30.12R
SHAWANO        CLEAR     57  52  82 CALM      30.11R
CLINTONVILLE   CLEAR     55  50  82 CALM      30.11R
$$

WIZ038-039-048-051-080400-
FOX VALLEY

CITY           SKY/WX    TMP DP  RH WIND       PRES   REMARKS
NWS GREEN BAY  CLEAR     57  50  77 SE7       30.11R
APPLETON       PTCLDY    61  46  59 CALM      30.11R
OSHKOSH        CLEAR     56  51  84 S7        30.11R
FOND DU LAC    PTCLDY    57  51  80 S5        30.12R
$$

WIZ022-050-052-080400-
EAST CENTRAL WISCONSIN

CITY           SKY/WX    TMP DP  RH WIND       PRES   REMARKS
STURGEON BAY   CLEAR     54  46  76 CALM      30.13R
MANITOWOC      CLEAR     54  51  90 MISG      30.12R
SHEBOYGAN      CLEAR     53  51  93 W3        30.12R
$$

LMZ563-521-522-541>543-080400-
LAKESHORE

STATION/POSITION TIME  TEMP    WIND        PRES    VSBY  WAVE
                       AIR SEA DIR/SP/G                  HT/PER
                 (UTC) (F)     (DEG/KT/KT) (MB)    (MI)  (FT/S)
SHEBOYGAN LKSHOR 0300   59     300/  2/  2 1020.2R
KEWAUNEE LKSHORE 0200   58      CALM  /  1 1018.5R
NORTHPORT PIER   0200   62      30/  1/  4 1018.6R
N MID LAKE BUOY  0250   56 51  320/  4/  4 1019.1R         1/ 4
S GREEN BAY BUOY 0300   62 68  130/ 10/ 12 1020.8
SISTER BAY LKSHO 0214   58        CALM       N/A
CHAMBERS ISLAND  0200   63      30/ 11/ 14 1018.6R
MENOMINEE LKSHOR 0200   64      60/  9/ 11 1019.4R
$$


USA.gov is the U.S. government's official web portal to all federal, state and local government web resources and services.